This is the latest recevied weather packets stored in our database for station/object JA0BES-13. If no packets are shown the sender has not sent any weather packets the latest 10 day(s).
| Time | Temp. | Humidity | Pressure | Rain* | Wind** | Luminosity | Snow |
|---|---|---|---|---|---|---|---|
| 1777776796 | 23.33° C | 48% | 1005.6 hPa | 0 mm | - | - | - |
| 1777776196 | 23.33° C | 50% | 1005.7 hPa | 0 mm | - | - | - |
| 1777775596 | 22.78° C | 49% | 1006 hPa | 0 mm | - | - | - |
| 1777774995 | 22.22° C | 51% | 1006.2 hPa | 0 mm | - | - | - |
| 1777774395 | 22.22° C | 51% | 1006.6 hPa | 0 mm | - | - | - |
| 1777773794 | 21.67° C | 53% | 1006.7 hPa | 0 mm | - | - | - |
| 1777773194 | 21.11° C | 53% | 1006.9 hPa | 0 mm | - | - | - |
| 1777772594 | 21.11° C | 56% | 1007.6 hPa | 0 mm | - | - | - |
| 1777771993 | 20° C | 62% | 1007.7 hPa | 0 mm | - | - | - |
| 1777771393 | 18.89° C | 68% | 1007.8 hPa | 0 mm | - | - | - |
| 1777770793 | 18.33° C | 78% | 1007.8 hPa | 0 mm | - | - | - |
| 1777770192 | 17.78° C | 80% | 1008.4 hPa | 0 mm | - | - | - |
| 1777769592 | 17.22° C | 82% | 1008.8 hPa | 0 mm | - | - | - |
| 1777768991 | 16.67° C | 85% | 1008.7 hPa | 0 mm | - | - | - |
| 1777768391 | 15.56° C | 87% | 1009.2 hPa | 0 mm | - | - | - |
| 1777767791 | 15.56° C | 89% | 1009.4 hPa | 0 mm | - | - | - |
| 1777767191 | 15° C | 91% | 1009.6 hPa | 0 mm | - | - | - |
| 1777766590 | 14.44° C | 91% | 1009.7 hPa | 0 mm | - | - | - |
| 1777765990 | 14.44° C | 93% | 1009.7 hPa | 0 mm | - | - | - |
| 1777765389 | 13.89° C | 94% | 1010 hPa | 0 mm | - | - | - |
| 1777764789 | 13.89° C | 95% | 1010.2 hPa | 0 mm | - | - | - |
| 1777764189 | 13.33° C | 95% | 1010.4 hPa | 0 mm | - | - | - |
| 1777763589 | 13.33° C | 95% | 1010.6 hPa | 0 mm | - | - | - |
| 1777762988 | 13.33° C | 96% | 1011 hPa | 0 mm | - | - | - |
| 1777762388 | 13.33° C | 96% | 1010.9 hPa | 0 mm | - | - | - |
* Rain since midnight (hover to see other rain measurements)
** Current wind speed in m/s (hover to see current wind gust speed)